AirNav   Air Wisconsin pilot careers
 
 826 users online  

M36 Frank Federer Memorial Airport
Brinkley, Arkansas, USA

GOING TO BRINKLEY?


FAA INFORMATION EFFECTIVE 11 OCTOBER 2018

Location

FAA Identifier: M36
Lat/Long: 34-52-49.0000N / 091-10-35.2000W
34-52.816667N / 091-10.586667W
34.8802778 / -91.1764444
(estimated)
Elevation: 195.3 ft. / 59.5 m (surveyed)
Variation: 02E (1995)
Time zone: UTC -5 (UTC -6 during Standard Time)
Zip code: 72021

Airport Operations

Airport use: Open to the public
Activation date: 04/1941
Control tower: no
ARTCC: MEMPHIS CENTER
FSS: JONESBORO FLIGHT SERVICE STATION
NOTAMs facility: JBR (NOTAM-D service available)
Attendance: MAR-SEP MON-SAT 0800-1700, OCT-FEB MON-FRI 0800-1700
Wind indicator: lighted
Segmented circle: yes
Lights: ACTVT MIRL RY 02/20 - CTAF.
Beacon: white-green (lighted land airport)
Operates sunset to sunrise.

Airport Communications

CTAF/UNICOM: 122.8
  • APCH/DEP SVC PROVIDED BY MEMPHIS ARTCC ON FREQS 135.3/335.8(BRINKLEY RCAG).

Nearby radio navigation aids

VOR radial/distance  VOR name  Freq  Var
UJMr305/30.8MARVELL VOR/DME109.6001E

Airport Services

Fuel available: 100LL
Parking: hangars and tiedowns
Airframe service: MAJOR
Powerplant service: MAJOR

Runway Information

Runway 2/20

Dimensions: 4002 x 75 ft. / 1220 x 23 m
Surface: asphalt, in fair condition
Weight bearing capacity: 
Single wheel: 12.0
Runway edge lights: medium intensity
RUNWAY 2  RUNWAY 20
Latitude: 34-52.519867N34-53.113748N
Longitude: 091-10.760575W091-10.411818W
Elevation: 195.1 ft.190.6 ft.
Gradient: 0.2%0.2%
Traffic pattern: rightleft
Runway heading: 024 magnetic, 026 true204 magnetic, 206 true
Displaced threshold: 248 ft.150 ft.
Markings: nonprecision, in fair conditionnonprecision, in fair condition
Visual slope indicator: 2-light PAPI on left (3.00 degrees glide path)
PAPI OTS INDEFLY.
2-light PAPI on left (3.00 degrees glide path)
PAPI OTS INDEFLY.
Touchdown point: yes, no lightsyes, no lights
Obstructions: 33 ft. tree, 450 ft. from runway, 150 ft. left of centerline, 7:1 slope to clear
ROAD & BRIDGE SIGNS AT 180 FT FM THLD CROSSING CNTRLN.
15 ft. tree, 300 ft. from runway, 125 ft. left of centerline, 6:1 slope to clear
APCH SLOPE 30:1 TO DSPLCD THLD.

Airport Ownership and Management from official FAA records

Ownership: Publicly-owned
Owner: CITY OF BRINKLEY
233 WEST CEDAR
BRINKLEY, AR 72021
Phone 870-734-1382
Manager: LYNN CARY
233 WEST CEDAR
BRINKLEY, AR 72021
Phone (870) 734-6064

Airport Operational Statistics

Aircraft based on the field: 8
Single engine airplanes: 8
    
Aircraft operations: avg 61/day *
90% local general aviation
9% transient general aviation
<1% military
* for 12-month period ending 31 August 2015

Additional Remarks

WATER-TANK NW.
NUMEROUS AGRICULTURAL ACFT OPNS FM FEB-NOV 500 FT AGL AND BELOW.
PAEW ADJ RY 02/20.
MIDFIELD STUB TXY CLSD UFN.

Instrument Procedures

NOTE: All procedures below are presented as PDF files. If you need a reader for these files, you should download the free Adobe Reader.

NOT FOR NAVIGATION. Please procure official charts for flight.
FAA instrument procedures published for use from 11 October 2018 at 0901Z to 8 November 2018 at 0900Z.

 
IAPs - Instrument Approach Procedures
RNAV (GPS) RWY 20   download (171KB)
NOTE: Special Take-Off Minimums/Departure Procedures apply   download (131KB)

Other nearby airports with instrument procedures:

6M7 - Marianna/Lee County Airport-Steve Edwards Field (19 nm E)
KDRP - Delta Regional Airport (22 nm NE)
M60 - Woodruff County Airport (24 nm N)
KSGT - Stuttgart Municipal Airport / Carl Humphrey Field (26 nm SW)
4M3 - Carlisle Municipal Airport (27 nm W)
 
Loc | Ops | Rwys | IFR | FBO | Links
Com | Nav | Svcs | Stats | Notes


 
Area around M36 (Frank Federer Memorial Airport)
 
Road maps at: MapQuest Bing Google
 
Aerial photo
WARNING: Photo may not be current or correct
Aerial photo of M36 (Frank Federer Memorial Airport)
Photo courtesy of the Arkansas Department of Aeronautics
Taken in the Spring of 2007

Do you have a better or more recent aerial photo of Frank Federer Memorial Airport that you would like to share? If so, please send us your photo.

 
Sectional chart

 
Airport distance calculator
Flying to Frank Federer Memorial Airport? Find the distance to fly.

From to M36

Sunrise and sunset
Times for 21-Oct-2018
 Local
(UTC-5)
 Zulu
(UTC)
Morning civil twilight06:5111:51
Sunrise07:1712:17
Sunset18:2223:22
Evening civil twilight18:4823:48

Current date and time
Zulu (UTC)  21-Oct-2018 13:38:26
Local (UTC-5)  21-Oct-2018 08:38:26
 
METAR
KSGT 
26nm SW 
211256Z AUTO 03011KT 10SM CLR 06/01 A3042 RMK AO2 SLP301 T00610006
KSRC 
35nm NW 
211256Z AUTO 02006KT 10SM CLR 04/M01 A3044 RMK AO2 SLP320 T00441006
KUTA 
43nm E 
211315Z AUTO 03006KT 10SM 05/00 A3042 RMK AO2 TSNO
KM19 
45nm N 
211156Z AUTO 03008KT 10SM CLR 02/M01 A3044 RMK AO2 SLP313 T00221006 10089 20017 51014
KCKM 
48nm SE 
211315Z AUTO 03009G14KT 10SM CLR 07/01 A3040 RMK A01
KLRF 
48nm W 
211256Z AUTO 03005KT 10SM CLR 05/01 A3042 RMK AO2 SLP305 T00490010 $
KAWM 
49nm E 
210953Z AUTO 04009KT 10SM CLR 07/00 A3036 RMK AO2 SLP280 T00720000 $
TAF
KLRF 
48nm W 
210700Z 2107/2213 05006KT 9999 SKC QNH3025INS BECMG 2202/2203 12006KT 9999 SKC QNH3024INS TX13/2121Z TN05/2112Z
NOTAMs
Click for the latest NOTAMs
NOTAMs are issued by the DoD/FAA and will open in a separate window not controlled by AirNav.

 

 
 

FBO, Fuel Providers, and Aircraft Ground Support

  
 Business Name 
 
 Contact 
 
 Services / Description 
 
Fuel Prices
 
Comments
  
Frank Federer Memorial Airport 870-734-5056
no information available

If you are affiliated with Frank Federer Memorial Airport and would like to show here your services, contact info, web link, logo, and more, click here
100LL
SS $4.98 
 Updated 01-May-2015
 
   write
SS=Self service
Update Fuel Prices
 

Would you like to see your business listed on this page?

 If your business provides an interesting product or service to pilots, flight crews, aircraft, or users of the Frank Federer Memorial Airport, you should consider listing it here.  To start the listing process, click on the button below
 
Add a business
 

Other Pages about Frank Federer Memorial Airport

Update a link
 
Copyright © AirNav, LLC. All rights reserved. Privacy Policy  Contact